Regional Weather Roundup
Issued by NWS Wakefield, VA

Home | Current Version | Previous Version | Graphics & Text | Print | Product List | Glossary On
Versions: 1 2 3 4 5 6 7 8 9 10 11 12 13 14 15 16 17 18 19 20 21 22 23 24 25 26 27 28 29 30 31 32 33 34 35 36 37 38 39 40 41 42 43 44 45 46 47 48 49 50
000
ASUS41 KAKQ 201910
RWRAKQ

REGIONAL WEATHER ROUNDUP
NATIONAL WEATHER SERVICE WAKEFIELD VA
300 PM EDT WED AUG 20 2014

Note: "fair" indicates few or no clouds below 12,000 feet with no
significant weather and/or obstructions to visibility. * = Denotes
station may not report precipitation (e.g., rain,snow,etc.),
thunder or fog.

VAZ042-051-052>054-056-202000-
NORTHERN VIRGINIA

CITY           SKY/WX    TMP DP  RH WIND       PRES   REMARKS
WASH NATIONAL  MOSUNNY   89  61  38 S13       29.95S
DULLES         PTSUNNY   82  63  52 S10       29.95S
FORT BELVOIR   SUNNY     85  64  49 SE10      29.96S
QUANTICO       MOSUNNY   83  66  56 S7        29.95F
FREDERICKSBRG* SUNNY     89  66  47 S10       29.93F
STAFFORD*      MOSUNNY   84  68  58 SE7       29.98F
WARRENTON      SUNNY     86  73  66 SE6G17    29.94S
CULPEPER*      MOSUNNY  N/A N/A N/A S7        29.94S
MANASSAS*      NOT AVBL
LEESBURG*      CLOUDY    86  68  54 S12G18    29.95F
WINCHESTER     PTSUNNY   77  72  83 E3        29.96F
$$

VAZ048-049-060>072-079>083-202000-
CENTRAL AND SOUTH CENTRAL VIRGINIA...AND NORTH CENTRAL NORTH CAROLINA

CITY           SKY/WX    TMP DP  RH WIND       PRES   REMARKS
RICHMOND       MOSUNNY   86  65  49 S9        29.94F
CHESTERFIELD*  MOCLDY    86  64  48 S5        29.97F
HANOVER        MOSUNNY   87  65  47 SW8       29.96F
TAPPAHANNOCK*  SUNNY     84  56  37 E9        29.97F
CHARLOTTSVILLE PTSUNNY   83  69  62 S12       29.94F
ORANGE*        MOSUNNY   86  68  54 E10G16    29.96S
LOUISA*        SUNNY     82  70  65 S5        29.94F
FARMVILLE*     PTSUNNY   86  70  58 S8        29.94F
SOUTH HILL*    MOSUNNY   86  73  66 S6        30.03R
ROANOKE RAPIDS CLEAR     84  72  65 SW5       29.96F
RALEIGH        MOSUNNY   87  71  58 SE7       29.96F
$$

VAZ088>098-202000-
SOUTHEAST VIRGINIA

CITY           SKY/WX    TMP DP  RH WIND       PRES   REMARKS
NORFOLK        SUNNY     81  66  60 NE8       29.96F
VIRGINIA BEACH MOSUNNY   80  69  69 E8        29.96F
NORFOLK NAVAL  MOSUNNY   82  68  62 NE12      29.98F
WEST POINT*    SUNNY     87  59  39 SE3       29.97F
NEWPORT NEWS   SUNNY     86  69  56 NE8       29.96F
LANGLEY AFB    SUNNY     82  68  62 SE8       29.96F
FORT EUSTIS    SUNNY     83  66  56 S10       29.95F
WILLIAMSBURG*  SUNNY     90  66  45 S10       29.97F
FRANKLIN*      SUNNY     86  68  54 CALM      29.95F
WAKEFIELD      SUNNY     86  67  52 VRB5      29.95F
$$

VAZ020-022-025-037-045-202000-
WESTERN AND SOUTHWEST VIRGINIA

CITY           SKY/WX    TMP DP  RH WIND       PRES   REMARKS
STAUNTON*      PTSUNNY   84  68  58 S9        29.98F
HOT SPRINGS VA PTSUNNY   71  61  70 SW10      30.14S
LYNCHBURG      MOSUNNY   82  72  71 S7        29.99F
DANVILLE       MOSUNNY   86  72  62 W7        29.98S
MARTINSVILLE   MOSUNNY   89  70  53 SW5       30.01F
ROANOKE        MOSUNNY   83  67  58 SW7       30.01F
BLACKSBURG     MOSUNNY   82  70  65 SW5       30.07F
DUBLIN*        MOSUNNY   82  67  60 W5        30.07S
MARION*        MOSUNNY   80  67  65 W14G23    30.12S
HILLSVILLE*    PTSUNNY   78  66  66 W8        30.10S
RICHLANDS*     MOCLDY    81  69  66 W7        30.10F
WISE*          MOSUNNY   81  66  61 W8        30.12S
ABINGDON*      CLOUDY    80  71  73 W7        30.09F
$$

MDZ021>025-VAZ099-100-202000-
SOUTHERN MARYLAND AND THE DELMARVA PENINSULA

CITY           SKY/WX    TMP DP  RH WIND       PRES   REMARKS
PATUXENT RIVER MOSUNNY   81  64  56 SE9       29.96F
BAY BRIDGE APT   N/A     82  59  44 S6        29.96F
LEONARDTOWN    SUNNY     82  61  47 SE10      29.97F
DOVER          SUNNY     81  65  58 SE8       29.97S
GEORGETOWN     SUNNY     82  63  52 SE9       29.98F
EASTON         MOSUNNY   86  64  48 S8        29.99F
CAMBRIDGE      MOSUNNY   84  63  48 SE8       29.95F
SALISBURY      SUNNY     85  63  47 E8        29.96F
OCEAN CITY     MOSUNNY   79  67  66 VRB6      29.99S
WALLOPS ISLAND MOSUNNY   82  61  48 E10       29.98F
ACCOMACK*      SUNNY     79  63  57 E7        29.97F
$$

NCZ012>017-030>032-202000-
EASTERN NORTH CAROLINA

CITY           SKY/WX    TMP DP  RH WIND       PRES   REMARKS
ELIZABETH CITY SUNNY     84  71  65 E7        29.96F
AHOSKIE*       MOSUNNY   82  71  67 CALM      29.96F
EDENTON*       MOSUNNY   83  72  69 SE5       29.96F
CURRITUCK*     SUNNY     84  68  58 E7        29.98F
KILL DEVIL HLS SUNNY     81  71  72 N6        29.96F
MANTEO         MOSUNNY   81  72  74 N9        29.97F
CAPE HATTERAS  MOSUNNY   83  73  72 VRB7      29.96F
GOLDSBORO      MOSUNNY   86  75  69 SE3       29.94F HX  96
WASHINGTON     MOSUNNY   85  72  63 N5        29.96F
GREENVILLE     SUNNY     86  72  62 S3        29.98F
NEW BERN       MOSUNNY   89  71  55 NW3       29.97F HX  95
WILMINGTON     LGT RAIN  79  76  90 S9        29.97F
$$

VAZ048-202000-
ELSEWHERE

CITY           SKY/WX    TMP DP  RH WIND       PRES   REMARKS
HARRISBURG PA  CLOUDY    81  67  62 SE5       29.95R
BALTIMORE      PTSUNNY   83  57  41 S9        29.96S
ANNAPOLIS      SUNNY     81  63  54 SE9       29.96F
ANDREWS AFB    MOSUNNY   84  63  48 SE8       29.95F
WILMINGTON DE  MOSUNNY   82  64  54 SE8       29.97F
PHILADELPHIA   MOSUNNY   84  63  49 S5        29.96F
WILDWOOD NJ*   SUNNY     79  61  53 E9        29.99F
ATLANTIC CITY  SUNNY     79  60  52 SE8       29.99S
HENDERSON NC   PTSUNNY   85  69  60 CALM      29.98S
GREENSBORO     PTSUNNY   87  71  58 W10       29.99S
ROCKY MOUNT    MOSUNNY   84  70  62 CALM      29.97F
FAYETTEVILLE   PTSUNNY   84  74  71 SW10      29.96S
CHARLOTTE      MOSUNNY   89  67  47 VRB3      30.00F
$$

VAZ100-202000-
MARINE

STATION/POSITION TIME  TEMP    WIND        PRES    WAVE   SWELL
                       AIR SEA DIR/SP/G            HT/PER HT/PER
                 (UTC) (F)     (DEG/KT/KT) (MB)    (FT/S) (FT/S)
44066 TX TWR #4  1900   72 73   40/ 10/ 12 1015.2F   3/ 6   3/ 6
CAPE MAY NJ      1900   76 81  120/  8/ 12 1014.8F
LEWES DE         1900   75 76  110/  8/ 11 1015.0F
15NM E FENWICK I 1900   74 76              1015.1F   3/ 5
OCEAN-CITY-INLET 1900   75 76  100/  6/  7 1015.2S
WACHAPREAGUE VA  1900   76 79   70/  8/ 11 1015.1F
THOMAS POINT MD  1900   78 78  220/  6/  7 1015.2F
GOOSES REEF MD   1900   79     190/ 12/ 14 1014.8F
COVE POINT MD    1900   77     190/ 12/ 14 1014.3F
SOLOMONS ISLAND  1900      81                N/A
BISHOPS HEAD MD  1900   78 80  280/  2/  5 1014.3F
PINEY POINT MD   1900          140/ 12/ 14   N/A
POTOMAC MD       1900   77     160/  8/ 10 1014.3F
CAMBRIDGE MD     1900   82 78   80/  6/  7 1014.0F
LEWISETTA VA     1900   80 80  130/ 11/ 14 1014.1F
RAPPAHANNOCK LGT 1900           80/  7/  9 1015.2F
STINGRAY PT      1900   77      60/  2/  4 1015.7F
YORK RVR RNG VA  1900   78     110/  4/  5 1014.3F
JAMESTOWN VA     1900   79     170/  6/ 10   N/A
DOMINION TERM VA 1900   78      80/  9/ 12 1014.8F
KIPTOPEKE VA     1900      83  110/  6/ 12   N/A
CHES BAY BRIDGE  1900   76 79   80/  8/ 11 1014.5F
CAPE HENRY VA    1900   77      80/  8/ 10 1013.9F
CHESAPEAKE LGHT  1800   76      40/  8/  9 1016.2S
WILLOUBY STN VA  1900   77      90/  9/ 10 1013.7F
S CRANEY ISL VA  1900           40/  9/ 11 1014.2F
CAPE HENRY BUOY  1900      78                N/A     3/ 5
1ST LANDING BUOY 1900   77      90/ 10/ 12 1014.7F
CAPE CHARLES BUO 1900      78                N/A     3/ 5   2/ 5
OFFSHORE WE BUOY 1900      78                N/A     3/ 5   3/ 5
64NM E OF VA BCH 1900   77 78   30/  8/ 10 1014.4F   3/ 6   3/ 6
DUCK PIER NC     1900   77 79   10/  8/  9 1014.3F
44056 DUCK FRF   1900                        N/A     3/ 5
OREGON INLET NC  1900   81 81   10/  7/ 12 1014.8S
HATTERAS NC      1900   81 82   10/  8/ 10 1014.9F
DIAMOND SHLS NC  1900   78     320/  8/ 12 1014.4S   2/ 7   2/ 7
CAPE LOOKOUT NC  1800   81     130/  6/  7 1015.2R
$$


USA.gov is the U.S. government's official web portal to all federal, state and local government web resources and services.